www.pogodaiklimat.ru

Погода и климат >> Архив погоды >> Индонезия >> Меулабох


ПОГОДА в Меулабохе

  • Прогноз погоды в Меулабохе
  • Монитор погоды в Меулабохе

АРХИВ ПОГОДЫ в Меулабохе

Время (UTC), дата Ветер
(напр.,м/с)
 
Видим.   Явления Облачность Т
(С)
Тd
(С)
f
(%)
Тe
(С)
Тes
(С)
Комфортность P
(гПа)
Po
(гПа)
Тmin
(С)
Tmax
(С)
R
(мм)
R24
(мм)
S
(см)
18 14.09 штиль 0 6000 м 9/4 500 м
[Sc Ac As Ci sp]
+24.9 +23.7 93 +34 +34 очень
душно
1011.9 1011.3
21 14.09 С 1 5000 м дымка 10/5 540 м
[Sc Ac As]
+24.5 +23.7 95 +33 +33 очень
душно
1010.8 1010.2
00 15.09 С 1 5000 м дымка 10/4
[Cb calv Ac As Ci sp]
+23.7 +23.0 96 +31 +32 очень
душно
1011.3 1010.7 +22.7 0.0
03 15.09 СВ 1 8000 м 9/5 570 м
[Sc As trans Ci fib]
+29.2 +23.8 73 +40 +45 очень
душно
1013.4 1012.8
06 15.09 Ю 2 10 км 5/3 570 м
[Cu hum Ac und Ci fib]
+32.2 +25.6 68 +47 +61 опасность
перегрева
1011.1 1010.5
09 15.09 ЮВ 3 10 км 8/4 570 м
[Sc Ac As Ci sp]
+30.2 +25.1 74 +44 +47 опасность
перегрева
1008.9 1008.3
12 15.09 В 1 7000 м 10/6 480 м
[Sc Ac As]
+28.0 +24.5 81 +39 +39 очень
душно
1010.2 1009.6 +33.5
15 15.09 ЮВ 2 6000 м 8/4 540 м
[Sc As op Ci sp]
+26.4 +24.6 90 +37 +37 очень
душно
1011.9 1011.3
18 15.09 штиль 0 4000 м дождь 10/5 480 м
[Sc As op]
+25.2 +24.4 95 +35 +35 очень
душно
1012.0 1011.3 8
21 15.09 СВ 1 5000 м в посл. час дождь 10/6
[Cb cap Ac As]
+24.8 +24.2 96 +34 +34 очень
душно
1009.8 1009.2 13
00 16.09 штиль 0 7000 м в посл. час дождь 9/5 480 м
[Cb cap Ac As Ci fib]
+24.4 +23.8 96 +33 +33 очень
душно
1010.7 1010.1 +23.7 2
03 16.09 В 1 8000 м 9/3 570 м
[Sc As trans Ci fib]
+28.7 +24.9 80 +41 +48 опасность
перегрева
1012.2 1011.6
06 16.09 Ю 2 8000 м 8/3 500 м
[Cu med, cong As trans Ci fib]
+30.0 +24.9 74 +43 +54 опасность
перегрева
1010.3 1009.7
09 16.09 ЮЗ 3 8000 м 9/6 400 м
[Cb cap As op Ci sp]
+29.7 +23.7 70 +41 +42 опасность
перегрева
1008.4 1007.8
12 16.09 В 1 7000 м 9/6 360 м
[Cb cap Ac As Ci sp]
+26.5 +23.3 83 +36 +36 очень
душно
1009.0 1008.5 +31.3
15 16.09 СВ 1 6000 м 9/5 480 м
[Cb cap Ac As Ci sp]
+24.8 +23.6 93 +34 +34 очень
душно
1010.6 1010.0
18 16.09 С 1 6000 м 9/5 480 м
[Cb cap Ac As Ci sp]
+24.3 +23.5 95 +33 +33 очень
душно
1010.5 1009.9
21 16.09 штиль 0 6000 м 8/4 540 м
[Sc Ac As Ci sp]
+23.4 +22.6 95 +32 +32 очень
душно
1009.4 1008.8
00 17.09 штиль 0 6000 м 8/4 570 м
[Sc As op Ci sp]
+23.6 +22.8 95 +31 +31 очень
душно
1010.7 1010.1 +23.2
03 17.09 ЮВ 2 10 км 6/4 540 м
[Sc Ac As Ci sp]
+28.1 +23.9 78 +39 +46 очень
душно
1012.7 1012.1
06 17.09 ЮЗ 3 10 км 6/4 600 м
[Cu med, cong Ac As Ci sp]
+29.9 +23.6 69 +41 +50 опасность
перегрева
1010.3 1009.7
09 17.09 Ю 2 10 км 8/4 570 м
[Sc Ac trans Ci fib]
+31.3 +25.0 69 +45 +48 опасность
перегрева
1008.4 1007.8
12 17.09 ЮВ 2 7000 м 9/5 500 м
[Sc Ac As Ci sp]
+27.9 +24.3 81 +39 +39 очень
душно
1009.5 1008.9 +32.1
15 17.09 СВ 1 7000 м 8/5 540 м
[Sc Ac As Ci fib]
+25.8 +25.0 95 +37 +37 очень
душно
1011.5 1010.9
18 17.09 СВ 1 7000 м 9/5 540 м
[Sc Ac As Ci fib]
+24.2 +23.6 96 +33 +33 очень
душно
1011.3 1010.7
21 17.09 С 1 7000 м 9/5 540 м
[Sc Ac As Ci sp]
+23.5 +22.7 95 +31 +31 очень
душно
1010.2 1009.6
00 18.09 С 1 8000 м 9/5 600 м
[Sc Ac As Ci sp]
+23.8 +22.4 92 +31 +31 очень
душно
1011.6 1011.0 +23.4
03 18.09 В 1 10 км 8/4 570 м
[Sc Ac trans Ci fib]
+30.4 +24.1 69 +42 +48 опасность
перегрева
1012.2 1011.6
06 18.09 ЮЗ 4 12 км 6/5
[Cu med, cong Ac trans Ci fib]
+31.0 +25.0 70 +44 +51 опасность
перегрева
1010.4 1009.8
09 18.09 Ю 4 10 км 9/5 500 м
[Cu med, cong Ac As Ci sp]
+29.0 +26.3 85 +44 +46 опасность
перегрева
1009.2 1008.6
12 18.09 В 1 8000 м 9/5 450 м
[Cu med, cong Ac As Ci sp]
+26.8 +25.5 93 +39 +39 очень
душно
1010.4 1009.8 +31.0
15 18.09 В 1 7000 м 10/5 540 м
[Sc Ac As]
+26.0 +24.9 94 +37 +37 очень
душно
1012.6 1012.0
18 18.09 СВ 1 6000 м гроза без осадков 9/6 500 м
[Cb cap Ac As Ci ing]
+25.5 +24.8 96 +36 +36 очень
душно
1011.6 1011.0
21 18.09 ЮВ 1 7000 м в посл. час дождь 9/5 500 м
[Cu med, cong Ac As Ci fib]
+24.9 +24.4 97 +35 +35 очень
душно
1010.6 1010.0 0.8
00 19.09 СВ 2 5000 м дымка {дождь} 10/8 480 м
[Cb cap Ac lent]
+24.7 +24.4 98 +34 +34 очень
душно
1011.6 1011.0 +24.1 0.8
03 19.09 ЮВ 2 10 км 8/4 500 м
[Cu med, cong Ac trans Ci sp]
+29.0 +26.1 84 +44 +49 опасность
перегрева
1012.9 1012.2
06 19.09 ЮЗ 4 10 км 6/4 600 м
[Cu med, cong As op Ci sp]
+31.0 +27.6 82 +50 +57 опасность
перегрева
1010.8 1010.2
09 19.09 ЮЗ 2 7000 м {гроза} 9/6 400 м
[Cb cap Ac As Ci sp]
+29.1 +24.6 77 +41 +44 опасность
перегрева
1009.2 1008.7
12 19.09 ЮЗ 1 7000 м зарница {гроза} 9/6
[Cb cap Ac As Ci sp]
+28.3 +24.4 79 +40 +40 очень
душно
1010.5 1009.9 +32.0
15 19.09 СВ 1 7000 м 9/6 500 м
[Cu med, cong Ac As]
+25.6 +24.8 95 +36 +36 очень
душно
1012.0 1011.4
18 19.09 В 1 7000 м 9/6 500 м
[Cu med, cong Ac As Ci fib]
+25.2 +24.7 97 +35 +35 очень
душно
1011.2 1010.5
21 19.09 СВ 1 5000 м дымка 10/5 600 м
[Sc Ac As]
+24.9 +24.4 97 +35 +35 очень
душно
1009.9 1009.3
00 20.09 СВ 2 6000 м дымка 10/5 600 м
[Sc Ac As Cs]
+24.2 +23.8 98 +33 +33 очень
душно
1010.8 1010.2 +23.6
03 20.09 В 1 8000 м 8/3 500 м
[Sc As trans Ci fib]
+29.0 +24.5 77 +41 +49 опасность
перегрева
1012.5 1011.9
06 20.09 ЮЗ 3 10 км 5/3 540 м
[Cu hum As trans Ci fib]
+31.0 +27.6 82 +50 +61 опасность
перегрева
1010.5 1009.9
09 20.09 Ю 2 9000 м 6/4 570 м
[Sc Ac trans Ci fib]
+32.0 +25.7 69 +47 +51 опасность
перегрева
1007.9 1007.3
12 20.09 ЮВ 2 7000 м 9/5 480 м
[Cu med, cong Ac As Ci sp]
+28.7 +25.0 80 +41 +41 опасность
перегрева
1009.3 1008.7 +32.6
15 20.09 В 1 6000 м гроза без осадков 9/6
[Cb calv As op Ci sp]
+26.1 +24.7 92 +37 +37 очень
душно
1011.0 1010.4
18 20.09 СЗ 2 6000 м зарница 9/6
[Cb calv As op Ci sp]
+25.9 +24.3 91 +36 +36 очень
душно
1010.3 1009.7
21 20.09 С 1 5000 м в посл. час дождь {гроза} 10/6
[Cb cap Ac As]
+24.3 +23.6 96 +33 +33 очень
душно
1009.0 1008.4 8
00 21.09 В 1 7000 м {гроза, дождь} 9/5 450 м
[Cb cap Ac As Ci fib]
+24.7 +24.1 96 +34 +34 очень
душно
1010.3 1009.7 +24.1 8
03 21.09 Ю 2 6000 м осадки на расстоянии 9/6 480 м
[Sc Ac As Ci fib]
+27.5 +26.4 94 +42 +46 опасность
перегрева
1011.6 1011.0
06 21.09 ЮЗ 3 9000 м 8/5 540 м
[Cu med, cong Ac As Ci fib]
+29.0 +27.2 90 +46 +52 опасность
перегрева
1009.3 1008.6
09 21.09 ЮЗ 5 10 км 8/5 450 м
[Cb cap As op Ci sp]
+29.4 +26.8 86 +46 +48 опасность
перегрева
1007.9 1007.2

 

Местоположение метеостанции Меулабох (Индонезия): широта 4.25 долгота 96.12 высота над уровнем моря 90 м.

В архиве по умолчанию представлена погода в Меулабохе за последнюю неделю. Архивные данные за месяц целиком и за предыдущие месяцы, начиная с января 2011 года, Вы можете получить, выбрав интересующий диапазон дат из раскрывающегося списка и нажав кнопку "Ввод!".


*Определитесь, кто Вы:
робот инопланетянин человек

Внимание! Время в таблицах - всемирное. Для получения местного времени необходимо прибавить поправку, которая равна 7 ч.

Смотрите также архив погоды в соседних городах и на ближайших метеорологических станциях:

Погода в Банда-Ачехе (Индонезия) (161 км)
Погода в Лхоксёмаве (Индонезия) (162 км)
Погода в Сабанге (Индонезия) (201 км)
Погода в Белаване (Индонезия) (291 км)
Погода в Медан Полония (Индонезия) (294 км)
Погода в Гунунгситоли (Индонезия) (349 км)
Погода в Сиболге (Индонезия) (429 км)
Погода в Лангкави (Малайзия) (462 км)
Погода в Пенанге (Малайзия) (474 км)
Погода на Пхукете (Таиланд) (476 км)

Пояснения к столбцам:

Ветер - указаны скорость ветра в м/с - средняя за 10 мин, порывы в срок и между сроками (в фигурных скобках) и направление, откуда дует ветер: С - северный, СВ - северо-восточный, В - восточный, ЮВ - юго-восточный, Ю - южный, ЮЗ - юго-западный, З - западный, СЗ - северо-западный.
Видимость - горизонтальная дальность видимости в метрах или километрах. При видимости от 1 до 10 км при отсутствии осадков обычно наблюдается дымка, при ухудшении видимости до 1 км и менее - туман. В сухую погоду видимость может ухудшаться дымом, пылью или мглою.
Явления - указаны атмосферные явления, наблюдавшиеся в срок или в последний час перед сроком; фигурными скобками обозначены явления, наблюдавшиеся между сроками (за 1-3 часа до срока); квадратными скобками обозначены град или гололедные отложения с указанием их диаметра в мм.
Облачность - указаны через наклонную черту общая и нижняя облачность в баллах и высота нижней границы облаков в метрах; квадратными скобками обозначены формы облаков: Ci - перистые, Cs - перисто-слоистые, Cc - перисто-кучевые, Ac - высококучевые, As - высокослоистые, Sc - слоисто-кучевые, Ns - слоисто-дождевые, Cu - кучевые, Cb - кучево-дождевые. Подробнее классификацию облаков см. в Атласе облаков (PDF).
T - Температура воздуха - температура, измеренная на высоте 2 м над землей.
Td - Температура точки росы - температура, при понижении до которой содержащийся в воздухе водяной пар достигнет насыщения.
f - Относительная влажность воздуха - влажноcть воздуха, измеренная на высоте 2 м над землей.
Te - Эффективная температура - температура, которую ощущает одетый по сезону человек в тени. Характеристика душности погоды. При расчете учитывается влияние влажности воздуха и скорости ветра на теплоощущения человека.
Tes - Эффективная температура на солнце - температура, которую ощущает человек, с поправкой на солнечный нагрев. Характеристика знойности погоды. Зависит от высоты солнца над горизонтом, облачности и скорости ветра. Ночью, в пасмурную погоду, а также при ветре 12 м/с и более поправка равна нулю.
P - Атмосферное давление - приведенное к уровню моря атмосферное давление.
Po - Атмосферное давление - измеренное на уровне метеостанции атмосферное давление.
Tmin - Минимальная температура - минимум температуры воздуха на высоте 2 м над землей.
Tmax - Максимальная температура - максимум температуры воздуха на высоте 2 м над землей.
R - Количество осадков - Количество выпавших осадков за период времени, мм. При наведении курсора мыши на число - период времени, за который выпало указанное количество осадков.
R24 - Количество осадков - Количество выпавших осадков за 24 часа, мм.
S - Снежный покров - Высота снежного покрова, см. При наведении курсора мыши на число - состояние снежного покрова и степень покрытия местности в баллах.